Regional Weather Roundup
Issued by NWS

Home | Current Version | Previous Version | Graphics & Text | Print | Product List | Glossary On
Versions: 1 2 3 4 5 6 7 8 9 10 11 12 13 14 15 16 17 18 19 20 21 22 23 24 25 26 27 28 29 30 31 32 33 34 35 36 37 38 39 40 41 42 43 44 45 46 47 48 49 50
000
ASUS43 KOAX 032302
RWRNE

WEATHER ROUNDUP FOR NEBRASKA
NATIONAL WEATHER SERVICE OMAHA NE
600 PM CDT FRI JUL 03 2015

NOTES: SATELLITE DATA IS BEING USED TO AUGMENT CLOUD COVER ABOVE
       12000 FEET.
       "FAIR" INDICATES FEW OR NO CLOUDS BELOW 12,000 FEET WITH NO
       SIGNIFICANT WEATHER AND/OR OBSTRUCTIONS TO VISIBILITY.

  * THESE STATIONS DO NOT REPORT WEATHER SUCH AS RAIN...SNOW OR FOG.

NEZ001>004-019>022-054>056-040000-
NEBRASKA PANHANDLE

CITY           SKY/WX    TMP DP  RH WIND       PRES   REMARKS
SCOTTSBLUFF    SUNNY     85  56  37 E7        30.02F
ALLIANCE       SUNNY     81  57  43 SE7       30.03F
CHADRON        SUNNY     84  54  35 SE6       29.98F
KIMBALL          N/A    N/A N/A N/A MISG        N/A
SIDNEY         PTSUNNY   84  56  38 E10       30.06F
$$

NEZ057>060-069>072-079>082-040000-
SOUTHWEST NEBRASKA

CITY           SKY/WX    TMP DP  RH WIND       PRES   REMARKS
NORTH PLATTE   MOSUNNY   83  57  41 SE8       29.99F
IMPERIAL       SUNNY     88  54  31 N6        30.00F
LEXINGTON      SUNNY     82  59  45 CALM      29.99F
MCCOOK         SUNNY     83  62  49 E9        29.98F
$$

NEZ005>010-023>029-035>040-094-040000-
NORTH CENTRAL NEBRASKA

CITY           SKY/WX    TMP DP  RH WIND       PRES   REMARKS
VALENTINE      CLOUDY    83  58  42 E3        29.99F
AINSWORTH      SUNNY     81  57  44 N5        30.00F
BROKEN BOW     MOSUNNY   82  61  48 VRB5      29.99F
ORD            SUNNY     82  60  47 E7        29.96F
$$

NEZ041-046>049-061>064-073>077-083>087-040000-
SOUTH CENTRAL NEBRASKA

CITY           SKY/WX    TMP DP  RH WIND       PRES   REMARKS
GRAND ISLAND   MOSUNNY   77  61  57 E5        30.00F
AURORA         MOSUNNY   74  61  63 CALM      29.99F
HASTINGS       MOSUNNY   77  62  59 E7        29.99F
KEARNEY *      MOSUNNY   79  61  53 E8        30.00S
$$

NEZ011>018-030>034-042>045-040000-
NORTHEAST NEBRASKA

CITY           SKY/WX    TMP DP  RH WIND       PRES   REMARKS
NORFOLK        SUNNY     77  62  59 CALM      29.98F
BLAIR          SUNNY     77  54  44 NE3       29.97F
COLUMBUS *     MOSUNNY   75  61  60 CALM      30.00F
FREMONT        SUNNY     78  58  51 CALM      29.98S
TEKAMAH        SUNNY     80  57  45 W5        29.96F
$$

NEZ050>053-065>068-078-088>093-040000-
SOUTHEAST NEBRASKA

CITY           SKY/WX    TMP DP  RH WIND       PRES   REMARKS
LINCOLN        PTSUNNY   77  60  55 CALM      29.98S
OMAHA EPPLEY   SUNNY     79  51  37 N6        29.96F
FALLS CITY     SUNNY     80  57  45 VRB6      29.95S HAZE
PLATTSMOUTH    SUNNY     76  51  41 CALM      29.97F
$$

NEZ044-045-051>053-067-040000-
OMAHA AREA

CITY           SKY/WX    TMP DP  RH WIND       PRES   REMARKS
OMAHA EPPLEY   SUNNY     79  51  37 N6        29.96F
BLAIR          SUNNY     77  54  44 NE3       29.97F
FREMONT        SUNNY     78  58  51 CALM      29.98S
MILLARD        SUNNY     78  55  43 CALM      29.96S
OFFUTT AFB     SUNNY     78  56  47 VRB2      29.96S
PLATTSMOUTH    SUNNY     76  51  41 CALM      29.97F
$$


USA.gov is the U.S. government's official web portal to all federal, state and local government web resources and services.